Location: Rioux
(40.7500°S, 175.7500°E)
Time: 10:51:13
(UTC+00:00)

Meteor 2-16 Rocket - Pass Details

Date: 12 June 2024
Orbit: 942 x 955 km, 82.6° (Epoch: 20 July)

Event Time Altitude Azimuth Distance (km) Brightness Sun altitude
Rises 18:29:05 0° 343° (NNW) 3,621 7.5 -12.8°
Reaches altitude 10° 18:31:37 10° 339° (NNW) 2,682 6.8 -12.3°
Maximum altitude 18:37:40 60° 260° (W) 1,095 4.5 -11.2°
Drops below altitude 10° 18:43:47 10° 179° (S) 2,705 6.6 -10.2°
Sets 18:46:21 0° 175° (S) 3,655 7.3 -9.7°
